Location: Unspecified
(41.5000°N, 0.0000°E)
Time: 01:25:57
(UTC+00:00)

deb Explorer IX - Visible Passes

Search period start: 16 June 2019 00:00
Search period end: 26 June 2019 00:00
Orbit: 537 x 1115 km, 38.8° (Epoch: 14 June)

Date Brightness Start Highest point End Pass type
(mag) Time Alt. Az. Time Alt. Az. Time Alt. Az.
16 Jun ? 20:53:45 10° W 20:59:29 34° SSW 21:03:00 18° SSE visible
17 Jun ? 20:31:46 10° W 20:37:39 35° SSW 20:42:12 13° SSE visible
18 Jun ? 20:09:46 10° W 20:15:48 35° SSW 20:21:04 10° SE visible
21 Jun ? 20:55:22 10° SW 20:56:06 10° SW 20:56:50 10° SW visible
22 Jun ? 20:33:10 10° SW 20:34:13 10° SW 20:35:15 10° SW visible
23 Jun ? 20:11:04 10° SW 20:12:19 11° SW 20:13:33 10° SW visible
